This is the latest recevied weather packets stored in our database for station/object OE3PDB-3. If no packets are shown the sender has not sent any weather packets the latest 10 day(s).
| Time | Temp. | Humidity | Pressure | Rain* | Wind** | Luminosity | Snow |
|---|---|---|---|---|---|---|---|
| 1787939424 | 27.78° C | 51% | 1012.1 hPa | 0 mm | - | - | - |
| 1787938824 | 27.78° C | 51% | 1010.8 hPa | 0 mm | - | - | - |
| 1787938224 | 27.78° C | 51% | 1010.4 hPa | 0 mm | - | - | - |
| 1787937624 | 27.78° C | 50% | 1010.1 hPa | 0 mm | - | - | - |
| 1787937024 | 27.78° C | 50% | 1009.7 hPa | 0 mm | - | - | - |
| 1787936424 | 28.33° C | 49% | 1009.7 hPa | 0 mm | - | - | - |
| 1787935824 | 28.33° C | 48% | 1009.8 hPa | 0 mm | - | - | - |
| 1787935224 | 28.33° C | 48% | 1009.9 hPa | 0 mm | - | - | - |
| 1787934624 | 28.89° C | 47% | 1010.2 hPa | 0 mm | - | - | - |
| 1787934024 | 28.89° C | 47% | 1010.1 hPa | 0 mm | - | - | - |
| 1787933424 | 28.89° C | 46% | 1010.1 hPa | 0 mm | - | - | - |
| 1787932824 | 28.89° C | 46% | 1010.1 hPa | 0 mm | - | - | - |
| 1787932224 | 29.44° C | 46% | 1010.3 hPa | 0 mm | - | - | - |
| 1787931624 | 29.44° C | 45% | 1010.5 hPa | 0 mm | - | - | - |
| 1787931024 | 29.44° C | 45% | 1010.6 hPa | 0 mm | - | - | - |
| 1787930424 | 29.44° C | 46% | 1010.7 hPa | 0 mm | - | - | - |
| 1787929824 | 28.89° C | 46% | 1011.2 hPa | 0 mm | - | - | - |
| 1787929225 | 28.89° C | 46% | 1011.3 hPa | 0 mm | - | - | - |
| 1787928625 | 28.89° C | 45% | 1011.5 hPa | 0 mm | - | - | - |
| 1787928025 | 29.44° C | 44% | 1011.6 hPa | 0 mm | - | - | - |
| 1787927425 | 29.44° C | 44% | 1011.3 hPa | 0 mm | - | - | - |
| 1787926825 | 30° C | 43% | 1011.4 hPa | 0 mm | - | - | - |
| 1787926225 | 30° C | 43% | 1011.1 hPa | 0 mm | - | - | - |
| 1787925625 | 30° C | 42% | 1011.5 hPa | 0 mm | - | - | - |
| 1787925025 | 30° C | 42% | 1011.5 hPa | 0 mm | - | - | - |
* Rain latest hour (hover to see other rain measurements)
** Current wind speed in m/s (hover to see current wind gust speed)